Newport News, VA

1:12 PM EDT on March 25, 2017 (GMT -0400)
Newport News-Williamsburg International

Weather History for KPHF - January, 2014

Change the Weather History Date:

Sunday, January 26, 2014

  Actual Average Record
Temperature  
Mean Temperature 38 °F -  
Max Temperature 48 °F 52 °F 74 °F (1950)
Min Temperature 28 °F 35 °F 17 °F (1961)
Degree Days  
Heating Degree Days 27    
Moisture  
Dew Point 12 °F    
Average Humidity 34    
Maximum Humidity 55    
Minimum Humidity 20    
Precipitation  
Precipitation 0.00 in - - ()
Sea Level Pressure  
Sea Level Pressure 29.89 in    
Wind  
Wind Speed 9 mph (SW)    
Max Wind Speed 15 mph    
Max Gust Speed 24 mph    
Visibility 10 miles    
Events      
Averages and records for this station are not official NWS values.
T = Trace of Precipitation, MM = Missing Value Source: NWS Daily Summary

Daily Weather History Graph

Daily Weather History Graph

Search for Another Location

Airport or City:

Trip Planner

Search our weather history database for the weather conditions in past years. The results will help you decide how hot, cold, wet, or windy it might be!

Date:

Astronomy

Jan. 26, 2014 Rise Set
Actual Time 7:13 AM EST 5:24 PM EST
Civil Twilight 6:45 AM EST 5:52 PM EST
Nautical Twilight 6:14 AM EST 6:23 PM EST
Astronomical Twilight 5:43 AM EST 6:54 PM EST
Moon 2:47 AM EST (1/26) 1:12 PM EST (1/26)
Length of Visible Light 11h 06m
Length of Day
10h 11m
Waning Crescent, 24% of the Moon is Illuminated
Jan 26
Waning Crescent
Jan 30
New
Feb 6
First Quarter
Feb 14
Full
Feb 22
Last Quarter

Hourly Weather History & Observations

Time (EST) Temp. Windchill Dew Point Humidity Pressure Visibility Wind Dir Wind Speed Gust Speed Precip Events Conditions
12:54 AM 37.0 °F 28.1 °F 16.0 °F 42% 29.75 in 10.0 mi WSW 15.0 mph 23.0 mph N/A   Clear
1:54 AM 37.0 °F 28.5 °F 16.0 °F 42% 29.78 in 10.0 mi West 13.8 mph - N/A   Clear
2:54 AM 36.0 °F 28.5 °F 12.0 °F 37% 29.81 in 10.0 mi West 10.4 mph 24.2 mph N/A   Clear
3:54 AM 34.0 °F 25.5 °F 7.0 °F 32% 29.86 in 10.0 mi WNW 11.5 mph - N/A   Clear
4:54 AM 33.1 °F 26.1 °F 8.1 °F 35% 29.91 in 10.0 mi West 8.1 mph - N/A   Clear
5:54 AM 30.9 °F 25.2 °F 5.0 °F 33% 29.92 in 10.0 mi WNW 5.8 mph - N/A   Clear
6:54 AM 28.9 °F 23.9 °F 3.9 °F 35% 29.96 in 10.0 mi NW 4.6 mph - N/A   Clear
7:54 AM 30.9 °F - 6.1 °F 35% 29.97 in 10.0 mi Calm Calm - N/A   Clear
8:54 AM 34.0 °F - -0.9 °F 23% 29.98 in 10.0 mi Calm Calm - N/A   Clear
9:54 AM 36.0 °F 28.5 °F 6.1 °F 29% 29.99 in 10.0 mi WSW 10.4 mph - N/A   Clear
10:54 AM 37.9 °F 32.1 °F 6.1 °F 27% 29.98 in 10.0 mi WSW 8.1 mph - N/A   Clear
11:54 AM 41.0 °F 35.8 °F 9.0 °F 27% 29.94 in 10.0 mi SW 8.1 mph - N/A   Clear
12:54 PM 43.0 °F 36.8 °F 5.0 °F 21% 29.90 in 10.0 mi WSW 11.5 mph - N/A   Clear
1:54 PM 45.0 °F 40.1 °F 6.1 °F 20% 29.88 in 10.0 mi SW 9.2 mph - N/A   Clear
2:54 PM 46.9 °F - 10.0 °F 22% 29.86 in 10.0 mi SW 8.1 mph - N/A   Clear
3:54 PM 48.0 °F - 12.0 °F 24% 29.86 in 10.0 mi SSW 6.9 mph - N/A   Mostly Cloudy
4:54 PM 46.9 °F - 12.9 °F 25% 29.85 in 10.0 mi South 6.9 mph - N/A   Clear
5:54 PM 45.0 °F 40.6 °F 17.1 °F 33% 29.85 in 10.0 mi South 8.1 mph - N/A   Clear
6:54 PM 44.1 °F 40.1 °F 19.0 °F 37% 29.87 in 10.0 mi South 6.9 mph - N/A   Clear
7:54 PM 43.0 °F 38.8 °F 21.0 °F 42% 29.88 in 10.0 mi South 6.9 mph - N/A   Clear
8:54 PM 43.0 °F 37.7 °F 24.1 °F 47% 29.88 in 10.0 mi South 9.2 mph - N/A   Clear
9:54 PM 44.1 °F 38.6 °F 26.1 °F 49% 29.86 in 10.0 mi South 10.4 mph - N/A   Clear
10:54 PM 42.1 °F 38.4 °F 26.1 °F 53% 29.87 in 10.0 mi SSW 5.8 mph - N/A   Clear
11:54 PM 41.0 °F 37.1 °F 26.1 °F 55% 29.86 in 10.0 mi SW 5.8 mph - N/A   Clear